CIRIS (45121 NORAD) Tracking and Keplerian Element Data

This shows tracking and keplerian element data for the satellite.

Feedback or suggestion? Click here.




ElementValue
Catalog45121
NameCIRIS
Epoch Orbit313
Epoch Day52.93017792
Epoch Year2020
RAAN206.1856
Inclination51.6416
Eccentricity0.0011638
Argument of Perigee356.7868
Mean Anonmoly3.3037
Mean Motion15.33289966
Decay Rate2.582E-05
L11 45121U 19071L 20052.93017792 .00002582 00000-0 90497-4 0 9998
L22 45121 51.6416 206.1856 0011638 356.7868 3.3037 15.33289966 3133

Live tracking and technical data element details for CIRIS (NORAD 45121). CIRIS can be tracked NOW for your location showing map with azimuth and elevation plus other details from your city location.

Track the satellite on the map from your city or location and see movement details for azimuth, elevation, latitude, longitude, range, height, and movement on the map or in text.







IsCatalogInMostPopularTable: catalog: 45121, numindb: 6
Update: records affected: 1



GetName: 45121 CIRIS

Hit Count: updated at: Wed, 26 Feb 2020 16:19:36 GMT